Location: Rochester
(43.1610°N, 77.6109°W)
Time: 09:29:46
(UTC-04:00)

N. Korean satellite - Visible Passes

Search period start: 22 October 2019 00:00
Search period end: 01 November 2019 00:00
Orbit: 455 x 508 km, 97.2° (Epoch: 21 October)

Date Brightness Start Highest point End Pass type
(mag) Time Alt. Az. Time Alt. Az. Time Alt. Az.
22 Oct 9.8 06:16:29 10° NE 06:19:07 19° E 06:21:45 10° SE visible
24 Oct 7.2 06:58:25 10° NNE 07:02:03 64° E 07:05:42 10° S visible
24 Oct 9.8 19:09:12 10° SW 19:11:38 18° W 19:14:06 10° NW visible
25 Oct 8.9 06:33:24 10° NNE 06:36:41 30° E 06:39:57 10° SSE visible
25 Oct 8.3 18:42:58 10° SSW 18:46:11 37° W 18:49:27 10° NNW visible
26 Oct 10.1 06:08:57 10° NE 06:11:13 15° E 06:13:29 10° SE visible
27 Oct 10.3 19:28:06 10° WSW 19:29:12 11° W 19:30:18 10° WNW visible
28 Oct 7.7 06:50:34 10° NNE 06:54:10 50° E 06:57:46 10° S visible
28 Oct 9.4 19:00:53 10° SSW 19:03:40 22° W 19:06:30 10° NW visible
29 Oct 9.3 06:25:40 10° NE 06:28:45 25° E 06:31:51 10° SSE visible
29 Oct 7.7 18:34:53 10° S 18:38:13 47° W 18:41:39 10° NNW visible
30 Oct 10.3 06:01:32 10° ENE 06:03:15 13° E 06:04:58 10° ESE visible
31 Oct 6.7 07:07:52 10° NNE 07:11:35 87° E 07:15:19 10° SSW visible
31 Oct 10.0 19:19:15 10° SW 19:21:11 14° W 19:23:08 10° WNW visible
